TimeCST,TemperatureF,Dew PointF,Humidity,Sea Level PressureIn,VisibilityMPH,Wind Direction,Wind SpeedMPH,Gust SpeedMPH,PrecipitationIn,Events,Conditions,WindDirDegrees,DateUTC
12:15 AM,17.6,13.8,85,30.35,7.0,East,3.5,-,N/A,,Clear,100,2013-03-08 06:15:00
12:35 AM,17.6,14.4,87,30.36,7.0,SE,5.8,-,N/A,,Clear,140,2013-03-08 06:35:00
12:55 AM,17.6,14.0,86,30.36,7.0,SE,6.9,-,N/A,,Clear,130,2013-03-08 06:55:00
1:15 AM,17.6,14.0,86,30.36,7.0,ESE,4.6,-,N/A,,Clear,110,2013-03-08 07:15:00
1:35 AM,15.4,12.4,88,30.36,5.0,ESE,5.8,-,N/A,,Clear,110,2013-03-08 07:35:00
1:55 AM,17.6,14.5,88,30.35,7.0,SE,5.8,-,N/A,,Clear,130,2013-03-08 07:55:00
2:15 AM,17.6,14.2,86,30.35,7.0,SE,5.8,-,N/A,,Clear,130,2013-03-08 08:15:00
2:35 AM,20.5,17.4,88,30.34,7.0,SE,10.4,-,N/A,,Clear,140,2013-03-08 08:35:00
2:55 AM,22.6,18.5,84,30.34,7.0,SSE,9.2,-,N/A,,Clear,150,2013-03-08 08:55:00
3:15 AM,22.5,18.3,84,30.35,7.0,SE,6.9,-,N/A,,Clear,140,2013-03-08 09:15:00
3:35 AM,20.7,16.7,85,30.35,7.0,SE,6.9,-,N/A,,Clear,130,2013-03-08 09:35:00
3:55 AM,17.6,14.9,89,30.35,7.0,SE,5.8,-,N/A,,Clear,130,2013-03-08 09:55:00
4:15 AM,17.6,14.5,88,30.35,5.0,ESE,6.9,-,N/A,,Clear,120,2013-03-08 10:15:00
4:35 AM,15.3,12.2,88,30.35,5.0,East,5.8,-,N/A,,Clear,100,2013-03-08 10:35:00
4:55 AM,15.4,12.7,89,30.35,5.0,East,8.1,-,N/A,,Clear,100,2013-03-08 10:55:00
5:15 AM,16.5,13.8,89,30.35,5.0,ESE,6.9,-,N/A,,Clear,120,2013-03-08 11:15:00
5:35 AM,17.6,14.9,89,30.35,5.0,ESE,8.1,-,N/A,,Clear,110,2013-03-08 11:35:00
5:55 AM,17.6,14.9,89,30.34,5.0,ESE,11.5,-,N/A,,Clear,120,2013-03-08 11:55:00
6:15 AM,17.6,14.9,89,30.34,5.0,SE,9.2,-,N/A,,Clear,130,2013-03-08 12:15:00
6:35 AM,17.6,14.9,89,30.34,4.0,SE,8.1,-,N/A,,Clear,130,2013-03-08 12:35:00
6:55 AM,17.6,14.7,88,30.34,4.0,SE,8.1,-,N/A,,Clear,130,2013-03-08 12:55:00
7:15 AM,21.0,18.3,89,30.35,4.0,SSE,9.2,-,N/A,,Clear,150,2013-03-08 13:15:00
7:35 AM,24.4,20.3,84,30.34,5.0,SE,9.2,-,N/A,,Clear,140,2013-03-08 13:35:00
7:55 AM,25.2,20.1,81,30.34,7.0,SE,12.7,-,N/A,,Clear,140,2013-03-08 13:55:00
8:15 AM,27.5,21.9,80,30.34,7.0,SSE,12.7,18.4,N/A,,Clear,150,2013-03-08 14:15:00
8:55 AM,28.6,21.7,76,30.35,10.0,SSE,13.8,-,N/A,,Clear,150,2013-03-08 14:55:00
9:15 AM,30.2,22.8,74,30.35,10.0,SSE,11.5,20.7,N/A,,Clear,150,2013-03-08 15:15:00
9:35 AM,30.2,22.6,73,30.34,7.0,SSE,15.0,21.9,N/A,,Clear,150,2013-03-08 15:35:00
9:55 AM,32.0,24.4,74,30.34,10.0,SSE,18.4,-,N/A,,Clear,150,2013-03-08 15:55:00
10:15 AM,32.4,24.6,73,30.34,10.0,SSE,17.3,-,N/A,,Clear,150,2013-03-08 16:15:00
10:35 AM,32.4,23.9,71,30.34,10.0,SE,16.1,-,N/A,,Clear,140,2013-03-08 16:35:00
10:55 AM,33.8,25.0,70,30.34,10.0,SE,17.3,-,N/A,,Clear,140,2013-03-08 16:55:00
11:15 AM,34.9,25.7,69,30.33,10.0,SSE,13.8,-,N/A,,Clear,150,2013-03-08 17:15:00
11:35 AM,34.9,25.0,67,30.34,10.0,SSE,13.8,-,N/A,,Clear,150,2013-03-08 17:35:00
11:55 AM,34.9,24.8,67,30.34,10.0,SSE,13.8,-,N/A,,Clear,150,2013-03-08 17:55:00
12:15 PM,34.9,25.2,68,30.33,10.0,SSE,17.3,-,N/A,,Clear,150,2013-03-08 18:15:00
12:35 PM,35.4,25.5,67,30.32,10.0,SSE,16.1,23.0,N/A,,Clear,150,2013-03-08 18:35:00
12:55 PM,35.4,25.5,67,30.31,10.0,SE,16.1,-,N/A,,Clear,140,2013-03-08 18:55:00
1:15 PM,37.4,26.8,66,30.29,10.0,SSE,17.3,-,N/A,,Clear,150,2013-03-08 19:15:00
1:35 PM,37.4,26.4,65,30.28,10.0,SSE,16.1,-,N/A,,Clear,150,2013-03-08 19:35:00
1:55 PM,37.4,26.1,64,30.28,10.0,SE,15.0,-,N/A,,Clear,140,2013-03-08 19:55:00
2:15 PM,37.4,26.1,64,30.28,10.0,SE,16.1,-,N/A,,Clear,140,2013-03-08 20:15:00
2:35 PM,37.4,26.1,64,30.27,10.0,SSE,15.0,-,N/A,,Clear,150,2013-03-08 20:35:00
2:55 PM,37.4,26.2,64,30.26,10.0,SE,11.5,-,N/A,,Clear,140,2013-03-08 20:55:00
3:15 PM,37.4,26.2,64,30.27,10.0,SE,13.8,-,N/A,,Clear,140,2013-03-08 21:15:00
3:35 PM,37.4,25.9,63,30.27,10.0,SE,15.0,-,N/A,,Clear,140,2013-03-08 21:35:00
3:55 PM,37.4,26.6,65,30.26,10.0,SSE,16.1,23.0,N/A,,Clear,150,2013-03-08 21:55:00
4:15 PM,37.4,27.3,67,30.26,10.0,SSE,15.0,-,N/A,,Clear,150,2013-03-08 22:15:00
4:35 PM,37.4,27.5,67,30.26,10.0,SSE,11.5,-,N/A,,Clear,150,2013-03-08 22:35:00
4:55 PM,37.4,27.7,68,30.26,10.0,SSE,12.7,-,N/A,,Clear,150,2013-03-08 22:55:00
5:15 PM,34.9,26.2,71,30.26,10.0,SE,13.8,-,N/A,,Clear,140,2013-03-08 23:15:00
5:35 PM,34.9,26.2,71,30.26,10.0,SSE,12.7,-,N/A,,Clear,150,2013-03-08 23:35:00
5:55 PM,34.9,26.4,71,30.25,10.0,SE,12.7,-,N/A,,Clear,140,2013-03-08 23:55:00
6:15 PM,34.9,26.6,72,30.24,10.0,SE,13.8,-,N/A,,Clear,130,2013-03-09 00:15:00
6:35 PM,34.9,27.0,73,30.24,10.0,SE,12.7,-,N/A,,Clear,130,2013-03-09 00:35:00
6:55 PM,33.8,27.0,76,30.24,10.0,ESE,12.7,-,N/A,,Clear,120,2013-03-09 00:55:00
7:15 PM,32.4,26.4,79,30.22,10.0,ESE,11.5,-,N/A,,Clear,110,2013-03-09 01:15:00
7:35 PM,32.4,26.6,79,30.21,7.0,ESE,10.4,-,N/A,,Clear,110,2013-03-09 01:35:00
7:55 PM,32.4,26.6,79,30.21,7.0,ESE,10.4,-,N/A,,Clear,110,2013-03-09 01:55:00
8:15 PM,32.4,26.6,79,30.21,7.0,ESE,12.7,-,N/A,,Clear,120,2013-03-09 02:15:00
8:35 PM,32.4,27.1,81,30.20,7.0,ESE,10.4,-,N/A,,Clear,120,2013-03-09 02:35:00
8:55 PM,32.4,26.6,79,30.20,7.0,ESE,10.4,-,N/A,,Clear,120,2013-03-09 02:55:00
9:15 PM,32.4,27.3,82,30.20,7.0,ESE,9.2,-,N/A,,Clear,110,2013-03-09 03:15:00
9:35 PM,32.4,27.1,81,30.20,7.0,ESE,9.2,-,N/A,,Clear,110,2013-03-09 03:35:00
9:55 PM,32.4,27.1,81,30.20,7.0,SE,10.4,-,N/A,,Clear,130,2013-03-09 03:55:00
10:15 PM,32.4,27.1,81,30.19,7.0,ESE,10.4,-,N/A,,Clear,120,2013-03-09 04:15:00
10:35 PM,32.4,27.5,82,30.19,7.0,SE,11.5,16.1,N/A,,Clear,130,2013-03-09 04:35:00
10:55 PM,32.4,27.1,81,30.18,7.0,SE,12.7,-,N/A,,Clear,130,2013-03-09 04:55:00
11:15 PM,32.4,27.5,82,30.17,7.0,SE,13.8,-,N/A,,Drizzle,130,2013-03-09 05:15:00
11:35 PM,32.4,27.9,83,30.16,7.0,SE,13.8,-,N/A,,Light Drizzle,130,2013-03-09 05:35:00
11:55 PM,33.1,28.9,85,30.15,7.0,SE,11.5,-,N/A,Rain,Light Rain,140,2013-03-09 05:55:00